Weather History for KOWD - June, 2013

Change the Weather History Date:

Wednesday, June 19, 2013

  Actual Average Record
Temperature  
Mean Temperature 65 °F -  
Max Temperature 73 °F 77 °F 91 °F (2006)
Min Temperature 57 °F 55 °F 43 °F (1999)
Growing Degree Days 15 (Base 50)    
Moisture  
Dew Point 54 °F    
Average Humidity 71    
Maximum Humidity 100    
Minimum Humidity 37    
Precipitation  
Precipitation 0.01 in - - ()
Sea Level Pressure  
Sea Level Pressure 29.99 in    
Wind  
Wind Speed 5 mph (North)    
Max Wind Speed 10 mph    
Max Gust Speed 16 mph    
Visibility 10 miles    
Events      
Averages and records for this station are not official NWS values.
T = Trace of Precipitation, MM = Missing Value Source: NWS Daily Summary

Daily Weather History Graph

Daily Weather History Graph

Search for Another Location

Airport or City:

Trip Planner

Search our weather history database for the weather conditions in past years. The results will help you decide how hot, cold, wet, or windy it might be!

Date:

Astronomy

Jun. 19, 2013 Rise Set
Actual Time 5:08 AM EDT 8:24 PM EDT
Civil Twilight 4:33 AM EDT 8:58 PM EDT
Nautical Twilight 3:48 AM EDT 9:43 PM EDT
Astronomical Twilight 2:54 AM EDT 10:37 PM EDT
Moon 4:10 PM EDT (6/19) 1:54 AM EDT (6/19)
Length of Visible Light 16h 25m
Length of Day
15h 15m
Waxing Gibbous, 80% of the Moon is Illuminated
Jun 19
Waxing Gibbous
Jun 23
Full
Jun 30
Last Quarter
Jul 8
New
Jul 15
First Quarter

Hourly Weather History & Observations

Time (EDT) Temp. Dew Point Humidity Pressure Visibility Wind Dir Wind Speed Gust Speed Precip Events Conditions
12:53 AM 60.1 °F 60.1 °F 100% 29.91 in 10.0 mi NNW 3.5 mph - 0.01 in   Overcast
1:02 AM 60.8 °F 60.8 °F 100% 29.90 in 9.0 mi NNW 4.6 mph - N/A   Overcast
1:53 AM 59.0 °F 57.9 °F 96% 29.91 in 10.0 mi NNW 5.8 mph - N/A   Overcast
2:53 AM 59.0 °F 55.0 °F 87% 29.91 in 10.0 mi North 4.6 mph - N/A   Overcast
3:53 AM 57.9 °F 55.9 °F 93% 29.90 in 10.0 mi North 4.6 mph - 0.00 in   Overcast
4:53 AM 57.9 °F 57.0 °F 97% 29.91 in 10.0 mi NNW 3.5 mph - N/A   Overcast
5:53 AM 57.0 °F 57.0 °F 100% 29.91 in 10.0 mi NNW 3.5 mph - N/A   Partly Cloudy
6:53 AM 60.1 °F 57.0 °F 90% 29.93 in 10.0 mi NNW 5.8 mph - N/A   Clear
7:25 AM 60.8 °F 59.0 °F 94% 29.94 in 10.0 mi North 4.6 mph - N/A   Mostly Cloudy
7:53 AM 62.1 °F 59.0 °F 90% 29.95 in 10.0 mi North 4.6 mph - N/A   Scattered Clouds
8:53 AM 64.0 °F 57.0 °F 78% 29.97 in 10.0 mi North 9.2 mph - N/A   Clear
9:53 AM 66.0 °F 55.0 °F 68% 29.99 in 10.0 mi North 8.1 mph - N/A   Clear
10:53 AM 69.1 °F 50.0 °F 51% 30.00 in 10.0 mi North 4.6 mph - N/A   Clear
11:53 AM 71.1 °F 48.0 °F 44% 29.99 in 10.0 mi NE 9.2 mph - N/A   Partly Cloudy
12:53 PM 71.1 °F 48.0 °F 44% 30.00 in 10.0 mi ENE 10.4 mph 16.1 mph N/A   Mostly Cloudy
1:53 PM 71.1 °F 46.9 °F 42% 30.01 in 10.0 mi ENE 5.8 mph - N/A   Partly Cloudy
2:53 PM 72.0 °F 48.0 °F 43% 30.02 in 10.0 mi ESE 8.1 mph - N/A   Scattered Clouds
3:53 PM 72.0 °F 46.0 °F 40% 30.02 in 10.0 mi ENE 4.6 mph - N/A   Partly Cloudy
4:53 PM 73.0 °F 46.9 °F 39% 30.03 in 10.0 mi Variable 3.5 mph - N/A   Clear
5:53 PM 73.9 °F 46.0 °F 37% 30.02 in 10.0 mi North 4.6 mph - N/A   Partly Cloudy
6:53 PM 71.1 °F 48.9 °F 45% 30.04 in 10.0 mi SSE 6.9 mph - N/A   Mostly Cloudy
7:53 PM 68.0 °F 50.0 °F 52% 30.06 in 10.0 mi Calm Calm - N/A   Scattered Clouds
8:53 PM 66.0 °F 52.0 °F 60% 30.09 in 10.0 mi Calm Calm - N/A   Partly Cloudy
9:53 PM 64.0 °F 55.0 °F 73% 30.12 in 10.0 mi Calm Calm - N/A   Partly Cloudy
10:53 PM 60.1 °F 57.9 °F 93% 30.13 in 10.0 mi Calm Calm - N/A   Clear
11:53 PM 59.0 °F 57.9 °F 96% 30.14 in 10.0 mi Calm Calm - N/A   Clear